Farmingdale, NY

6:26 AM EST on February 07, 2016 (GMT -0500)
Republic

Weather History for KFRG - October, 2012

Change the Weather History Date:

Sunday, October 21, 2012

  Actual Average Record
Temperature  
Mean Temperature 56 °F -  
Max Temperature 64 °F 59 °F 73 °F (2007)
Min Temperature 48 °F 43 °F 39 °F (2008)
Degree Days  
Heating Degree Days 9    
Growing Degree Days 6 (Base 50)    
Moisture  
Dew Point 40 °F    
Average Humidity 56    
Maximum Humidity 74    
Minimum Humidity 40    
Precipitation  
Precipitation 0.00 in - - ()
Sea Level Pressure  
Sea Level Pressure 29.94 in    
Wind  
Wind Speed 7 mph (WNW)    
Max Wind Speed 14 mph    
Max Gust Speed 20 mph    
Visibility 10 miles    
Events      
Averages and records for this station are not official NWS values.
T = Trace of Precipitation, MM = Missing Value Source: NWS Daily Summary

Daily Weather History Graph

Daily Weather History Graph

Search for Another Location

Airport or City:

Trip Planner

Search our weather history database for the weather conditions in past years. The results will help you decide how hot, cold, wet, or windy it might be!

Date:

Astronomy

Oct. 21, 2012 Rise Set
Actual Time 7:11 AM EDT 6:03 PM EDT
Civil Twilight 6:44 AM EDT 6:31 PM EDT
Nautical Twilight 6:12 AM EDT 7:03 PM EDT
Astronomical Twilight 5:40 AM EDT 7:35 PM EDT
Moon 1:31 PM EDT (10/21) 11:54 PM EDT (10/21)
Length of Visible Light 11h 47m
Length of Day
10h 51m
Waxing Crescent, 45% of the Moon is Illuminated
Oct 21
Waxing Crescent
Oct 21
First Quarter
Oct 29
Full
Nov 6
Last Quarter
Nov 13
New

Hourly Weather History & Observations

Time (EDT) Temp. Dew Point Humidity Pressure Visibility Wind Dir Wind Speed Gust Speed Precip Events Conditions
12:53 AM 52.0 °F 39.0 °F 61% 29.84 in 10.0 mi West 4.6 mph - N/A   Clear
1:53 AM 52.0 °F 39.9 °F 63% 29.86 in 10.0 mi WNW 4.6 mph - N/A   Clear
2:53 AM 52.0 °F 37.9 °F 59% 29.87 in 10.0 mi WNW 6.9 mph - N/A   Clear
3:53 AM 52.0 °F 39.0 °F 61% 29.87 in 10.0 mi WNW 8.1 mph - N/A   Clear
4:53 AM 51.1 °F 39.9 °F 66% 29.89 in 10.0 mi WNW 5.8 mph - N/A   Clear
5:53 AM 50.0 °F 39.9 °F 68% 29.90 in 10.0 mi WNW 3.5 mph - N/A   Clear
6:53 AM 48.9 °F 41.0 °F 74% 29.93 in 10.0 mi West 4.6 mph - N/A   Clear
7:53 AM 48.9 °F 41.0 °F 74% 29.95 in 10.0 mi WNW 4.6 mph - N/A   Clear
8:53 AM 53.1 °F 42.1 °F 66% 29.97 in 10.0 mi WNW 8.1 mph - N/A   Clear
9:53 AM 55.0 °F 42.1 °F 62% 29.98 in 10.0 mi WNW 9.2 mph - N/A   Clear
10:53 AM 57.9 °F 42.1 °F 56% 29.98 in 10.0 mi West 8.1 mph - N/A   Clear
11:53 AM 59.0 °F 42.1 °F 53% 29.96 in 10.0 mi WNW 10.4 mph 16.1 mph N/A   Clear
12:53 PM 61.0 °F 41.0 °F 48% 29.95 in 10.0 mi WNW 13.8 mph 19.6 mph N/A   Clear
1:53 PM 64.0 °F 39.9 °F 41% 29.93 in 10.0 mi WNW 10.4 mph 16.1 mph N/A   Clear
3:53 PM 62.1 °F 37.9 °F 41% 29.94 in 10.0 mi WNW 13.8 mph 18.4 mph N/A   Clear
4:53 PM 63.0 °F 37.9 °F 40% 29.94 in 10.0 mi NW 9.2 mph 16.1 mph N/A   Clear
5:53 PM 61.0 °F 37.9 °F 42% 29.95 in 10.0 mi WNW 6.9 mph - N/A   Clear
6:53 PM 57.9 °F 39.0 °F 49% 29.97 in 10.0 mi West 4.6 mph - N/A   Clear
7:53 PM 57.0 °F 39.0 °F 51% 29.98 in 10.0 mi WNW 5.8 mph - N/A   Clear
8:53 PM 55.0 °F 39.0 °F 55% 29.99 in 10.0 mi WNW 5.8 mph - N/A   Clear
9:53 PM 55.9 °F 39.0 °F 53% 30.01 in 10.0 mi West 8.1 mph - N/A   Clear
10:53 PM 55.0 °F 39.0 °F 55% 30.01 in 10.0 mi WNW 5.8 mph - N/A   Clear
11:53 PM 55.9 °F 39.0 °F 53% 30.01 in 10.0 mi West 5.8 mph - N/A   Clear